Weather History for KLFK - October, 2014

Change the Weather History Date:

Wednesday, October 29, 2014

  Actual Average Record
Temperature  
Mean Temperature 67 °F 64 °F  
Max Temperature 80 °F 76 °F 92 °F (1977)
Min Temperature 54 °F 52 °F 25 °F (1910)
Degree Days  
Heating Degree Days 0 4  
Month to date heating degree days 0 56  
Since 1 July heating degree days 0 60  
Cooling Degree Days 2 3  
Month to date cooling degree days 217 142  
Year to date cooling degree days 2947 2539  
Growing Degree Days 19 (Base 50)    
Moisture  
Dew Point 59 °F    
Average Humidity 65    
Maximum Humidity 90    
Minimum Humidity 40    
Precipitation  
Precipitation 0.00 in 0.17 in 5.58 in (2009)
Month to date precipitation 3.61 4.50  
Year to date precipitation 38.61 39.17  
Snow  
Snow 0.00 in - - ()
Month to date snowfall 0.0  
Since 1 July snowfall 0.0  
Since 1 September snowfall 0.0  
Snow Depth 0.00 in    
Sea Level Pressure  
Sea Level Pressure 30.11 in    
Wind  
Wind Speed 5 mph (NNE)    
Max Wind Speed 12 mph    
Max Gust Speed 18 mph    
Visibility 9 miles    
Events      
T = Trace of Precipitation, MM = Missing Value Source: NWS Daily Summary

Daily Weather History Graph

Daily Weather History Graph

Search for Another Location

Airport or City:

Trip Planner

Search our weather history database for the weather conditions in past years. The results will help you decide how hot, cold, wet, or windy it might be!

Date:

Astronomy

Oct. 29, 2014 Rise Set
Actual Time 7:32 AM CDT 6:32 PM CDT
Civil Twilight 7:07 AM CDT 6:57 PM CDT
Nautical Twilight 6:38 AM CDT 7:26 PM CDT
Astronomical Twilight 6:10 AM CDT 7:54 PM CDT
Moon 12:46 PM CDT 11:47 PM CDT
Length of Visible Light 11h 50m
Length of Day
11h 00m
Waxing Crescent, 34% of the Moon is Illuminated
Oct 29
Waxing Crescent
Oct 30
First Quarter
Nov 6
Full
Nov 14
Last Quarter
Nov 22
New

Hourly Weather History & Observations

Time (CDT) Temp. Dew Point Humidity Pressure Visibility Wind Dir Wind Speed Gust Speed Precip Events Conditions
12:53 AM 68.0 °F 64.0 °F 87% 30.05 in 8.0 mi Calm Calm - N/A   Partly Cloudy
1:53 AM 69.1 °F 64.0 °F 84% 30.04 in 9.0 mi Calm Calm - N/A   Overcast
2:53 AM 69.1 °F 64.0 °F 84% 30.05 in 8.0 mi North 4.6 mph - N/A   Scattered Clouds
3:53 AM 68.0 °F 64.0 °F 87% 30.05 in 7.0 mi Calm Calm - N/A   Mostly Cloudy
4:53 AM 68.0 °F 64.0 °F 87% 30.06 in 7.0 mi Calm Calm - N/A   Overcast
5:53 AM 69.1 °F 64.0 °F 84% 30.06 in 5.0 mi Calm Calm - N/A   Haze
6:17 AM 68.0 °F 64.0 °F 87% 30.08 in 3.0 mi Calm Calm - N/A   Scattered Clouds
6:21 AM 69.1 °F 64.9 °F 87% 30.08 in 4.0 mi North 3.5 mph - N/A   Mostly Cloudy
6:53 AM 70.0 °F 66.0 °F 87% 30.08 in 3.0 mi NNE 4.6 mph - N/A   Overcast
7:53 AM 70.0 °F 64.9 °F 84% 30.10 in 6.0 mi North 11.5 mph - N/A   Haze
8:53 AM 68.0 °F 63.0 °F 84% 30.13 in 9.0 mi NNE 9.2 mph - N/A   Overcast
9:53 AM 68.0 °F 62.1 °F 81% 30.15 in 10.0 mi NE 9.2 mph - N/A   Overcast
10:53 AM 69.1 °F 61.0 °F 75% 30.16 in 10.0 mi North 9.2 mph - N/A   Overcast
11:03 AM 70.0 °F 61.0 °F 73% 30.17 in 10.0 mi NNE 6.9 mph - N/A   Overcast
11:10 AM 71.1 °F 60.1 °F 68% 30.17 in 10.0 mi NE 8.1 mph - N/A   Overcast
11:51 AM 73.4 °F 60.8 °F 65% 30.17 in 10.0 mi Variable 5.8 mph - N/A   Overcast
11:53 AM 73.0 °F 60.1 °F 64% 30.16 in 10.0 mi Variable 5.8 mph - N/A   Overcast
12:53 PM 78.1 °F 60.1 °F 54% 30.14 in 10.0 mi North 9.2 mph - N/A   Scattered Clouds
1:03 PM 75.9 °F 60.1 °F 58% 30.15 in 10.0 mi North 6.9 mph - N/A   Mostly Cloudy
1:21 PM 77.0 °F 59.0 °F 54% 30.14 in 10.0 mi NNE 10.4 mph - N/A   Scattered Clouds
1:53 PM 79.0 °F 59.0 °F 50% 30.11 in 10.0 mi NE 10.4 mph - N/A   Clear
2:53 PM 79.0 °F 57.9 °F 48% 30.10 in 10.0 mi NNE 6.9 mph - N/A   Scattered Clouds
3:53 PM 79.0 °F 54.0 °F 42% 30.09 in 10.0 mi NNE 9.2 mph - N/A   Clear
4:53 PM 77.0 °F 52.0 °F 42% 30.09 in 10.0 mi NE 9.2 mph - N/A   Clear
5:53 PM 75.0 °F 51.1 °F 43% 30.09 in 10.0 mi NE 5.8 mph - N/A   Clear
6:53 PM 69.1 °F 53.1 °F 57% 30.10 in 10.0 mi NE 3.5 mph - N/A   Clear
7:53 PM 66.0 °F 51.1 °F 59% 30.12 in 10.0 mi NE 4.6 mph - N/A   Clear
8:53 PM 64.9 °F 48.9 °F 56% 30.12 in 10.0 mi NE 4.6 mph - N/A   Clear
9:53 PM 61.0 °F 50.0 °F 67% 30.13 in 10.0 mi NE 3.5 mph - N/A   Clear
10:53 PM 59.0 °F 50.0 °F 72% 30.13 in 10.0 mi ENE 3.5 mph - N/A   Clear
11:53 PM 55.9 °F 48.9 °F 77% 30.13 in 10.0 mi ENE 4.6 mph - N/A   Clear